User: anonymous   Login
Location: �A�n Sefra
(34.9681°N, 0.4346°E)
Time: 20:14:13
(UTC+00:00)
Language:

Cosmos 2058 - Orbit

View from above orbital plane
View from above orbital plane
View from above satellite
View from above satellite

Ground track
Ground track

The orbit data is extracted from the following two-line orbital elements,

1 20465U 90010A   19349.01669607  .00000224  00000-0  16670-4 0  9990
2 20465  82.4901  91.7835 0016949 105.1277 255.1822 14.97943852621677
Epoch (UTC): 15 December 2019 00:24:02
Eccentricity: 0.0016949
inclination: 82.4901°
perigee height: 561 km
apogee height: 585 km
right ascension of ascending node: 91.7835°
argument of perigee: 105.1277°
revolutions per day: 14.97943852
mean anomaly at epoch: 255.1822°
orbit number at epoch: 62167

The dashed part of the orbit path shows where the satellite is in the earth's shadow,  

DLR